Location: Newark
(33.6439°N, 114.9881°W)
Time: 17:45:02
(UTC+00:00)

A-11 Canister half - Pass Details

Date: 01 September 2019
Orbit: 1527 x 1682 km, 47.3° (Epoch: 22 September)

Event Time Altitude Azimuth Distance (km) Brightness Sun altitude
Rises 23:14:37 0° 306° (NW) 4,917 12.1 34.5°
Reaches altitude 10° 23:17:46 10° 305° (NW) 3,937 11.8 33.9°
Maximum altitude 23:27:55 81° 221° (SW) 1,700 10.0 31.8°
Drops below altitude 10° 23:38:01 10° 135° (SE) 3,909 10.9 29.7°
Sets 23:41:08 0° 134° (SE) 4,881 11.3 29.1°
